mashhad/مشهد

Mashhad International Airport (IATAMHDICAOOIMM) (Persianفرودگاه شهید هاشمی نژاد مشهد‎) is an international airport located in MashhadRazavi KhorasanIran. It is also known as Shahid Hasheminejad International Airport.

Current weather information

OIMM METAR  

OIMM 220800Z 19004KT 4000 BR OVC015 03/02 Q1027 A3035


QNH:1027
Temp:3
Dewpoint:2

mehrabad/مهراباد

Tehran Mehrabad International Airport (Persianفرودگاه بین المللی مهرآباد‎) (IATATHRICAOOIII), is a joint airport and was one of the two international airports serving Tehran, the largest city in Iran. Until 2007 and before construction of the new airport for the city, Mehrabad was Tehran’s primary airport in both international and domestic traffic, but after 2007 International flights transferred to Imam Khomeini International Airport. All International flights in Tehran are currently served by Imam Khomeini International Airport and all domestic flights are served by this airport. Although only domestic flights are served by this airport, in 2016 Mehrabad Airport handled 16,678,351 passengers and was the busiest airport in Iran in terms of passengers. The airport is also used by the Government of Iran and is one of the bases of the Iranian Air Force.

Current weather information

OIII METAR  

OIII 220830Z 21006KT 4000 HZ FEW040 SCT100 07/02 Q1024 A3025


QNH:1024
Temp:7
Dewpoint:2

Tabriz/تبریز

Tabriz International Airport (Persianفرودگاه بین المللی تبریز‎) (IATATBZICAOOITT) is an airport that serves Tabriz, Iran. It is the primary airport of Tabriz. The runway of the airport is mutually being used by Tactical Air Base 2 of the Islamic Republic of Iran Air Force.

Current weather information

OITT METAR 

OITT 220830Z 07012KT 9999 FEW015 BKN180 07/M04 Q1023 A3023


QNH:1023
Temp:7
Dewpoint:-4